Theta_e
296 299 299 302 306 310 314 318 321 325 326 325 324 325 326 326 325 324 323 323 321 317 311 309 305 304 304 305 306 306 304 304 296 291 290 288 285 283 283 282 282 281 284
296 298 299 301 304 309 312 318 317 320 321 320 324 322 323 321 319 320 318 313 311 306 304 304 301 303 302 301 301 300 299 299 296 291 288 286 284 282 282 281 280 281 284
297 296 298 300 303 306 309 313 320 317 322 322 323 318 316 314 311 307 303 302 303 303 302 301 299 299 297 297 295 293 292 292 294 290 286 285 284 282 281 280 279 282 280
296 296 296 299 301 304 308 310 315 321 320 321 320 316 313 310 310 308 308 306 303 298 298 297 296 296 294 292 290 288 288 288 288 286 285 282 282 281 280 279 279 278 280
294 295 295 296 299 302 305 306 308 311 310 310 309 309 310 307 304 302 300 298 296 294 293 293 292 291 288 287 287 287 287 286 285 284 283 282 281 280 280 278 278 277 279
293 293 294 295 294 298 301 300 302 303 304 303 305 294 299 297 294 295 295 292 291 290 287 286 286 286 286 286 285 285 286 285 283 283 282 282 280 278 277 276 276 277 278
291 293 293 293 293 293 296 296 295 295 297 296 293 292 290 289 290 290 290 288 286 286 286 286 285 285 285 284 283 283 282 282 282 282 281 280 278 276 276 276 275 274 275
291 292 291 291 291 290 293 293 293 292 293 293 295 294 290 289 292 290 288 287 286 285 285 285 285 284 283 282 282 280 279 279 280 279 278 277 276 275 275 274 273 272 273
290 290 290 289 289 289 290 290 290 290 290 290 289 291 291 289 290 289 288 286 284 284 283 284 284 282 281 281 281 280 279 278 278 278 277 275 274 274 273 272 272 272 272
288 288 288 288 288 288 288 289 288 288 288 287 287 287 288 287 287 288 287 285 282 282 281 281 282 281 280 280 280 278 278 277 276 275 273 272 272 271 271 271 270 271 270
286 286 287 287 287 287 287 287 287 287 287 286 286 286 287 287 288 289 287 286 284 282 281 281 281 281 280 279 278 277 277 276 275 273 272 271 270 270 269 269 269 269 269
285 285 285 285 286 286 286 286 286 286 285 285 285 285 285 285 285 284 286 286 284 283 281 281 280 280 279 278 277 276 275 275 273 272 270 269 269 268 268 268 268 268 268
284 284 284 284 284 284 285 285 285 285 285 285 284 284 284 284 284 284 283 282 282 282 281 281 280 279 278 276 274 274 274 273 271 271 269 268 268 267 268 268 268 267 267
285 286 286 285 285 285 285 285 284 284 284 284 284 283 283 284 284 284 283 281 281 281 281 280 279 276 275 274 273 272 272 271 271 270 268 268 267 268 268 267 267 267 267
285 286 286 286 285 285 285 285 285 285 285 284 284 283 283 282 283 283 282 280 280 281 280 278 276 275 274 272 271 271 270 270 269 269 268 267 267 267 267 267 266 266 266
288 287 287 287 287 286 285 285 285 286 287 286 285 285 284 283 282 282 281 280 280 280 279 277 275 274 273 272 271 270 269 269 268 268 267 267 266 266 266 265 265 265 265
289 288 287 287 285 285 286 285 283 283 284 285 285 284 283 283 282 281 280 280 279 279 278 276 275 274 272 271 270 270 269 268 268 268 267 266 265 265 265 264 264 264 264
288 288 288 285 284 283 283 283 283 283 283 283 283 282 282 283 282 281 280 280 277 276 276 276 275 273 272 271 270 270 269 268 267 266 266 265 265 265 265 264 264 264 264
283 283 283 282 282 282 282 282 282 283 283 282 282 281 282 283 283 282 281 279 278 276 275 274 273 272 271 271 270 269 268 267 266 266 265 265 265 265 264 264 264 264 263
284 283 283 283 283 282 281 281 282 282 282 283 282 282 282 282 282 281 280 280 278 277 276 274 273 272 271 270 269 268 266 266 266 265 265 265 265 265 264 264 264 263 263
286 284 283 283 282 282 281 281 281 281 281 282 282 282 282 282 282 281 281 280 279 277 276 274 272 271 270 269 268 267 266 266 266 265 265 265 264 264 264 264 263 263 262
288 285 284 283 283 281 281 281 280 280 280 280 281 281 281 282 282 281 281 280 279 277 275 273 271 271 270 269 268 267 266 266 265 265 265 265 264 264 264 263 263 263 263
287 285 284 283 282 281 280 279 279 280 280 280 279 279 280 280 280 280 280 279 277 276 274 272 271 270 268 267 267 266 266 265 265 265 264 264 264 263 263 263 263 263 263
287 286 285 284 282 281 280 280 280 280 280 280 279 279 278 278 279 279 278 277 276 274 272 271 270 269 268 267 266 266 265 265 265 265 264 264 263 263 263 263 263 263 264
287 286 286 285 285 284 284 284 284 283 282 281 279 278 278 277 276 277 277 276 274 273 271 269 268 268 267 266 265 265 265 265 264 264 264 264 264 264 264 264 264 264 264
287 286 286 286 285 285 284 284 283 282 281 281 280 279 278 277 275 275 275 274 272 271 269 268 267 267 266 265 265 265 264 264 264 264 264 264 264 265 265 264 264 264 264
Wind_Speed
25 19 19 19 17 21 23 26 17 30 28 21 31 38 37 38 36 36 36 36 32 28 23 23 24 24 24 22 23 23 20 23 12 9 8 12 8 6 6 5 6 6 7
25 21 19 17 17 15 20 20 21 23 19 22 23 24 32 30 30 36 35 33 31 29 29 32 28 26 24 19 21 20 17 14 20 13 10 8 8 6 7 8 9 7 10
21 26 22 17 16 13 14 17 27 22 22 23 24 26 22 20 25 25 27 30 31 33 32 32 28 25 26 22 18 19 15 16 15 14 9 8 6 6 7 8 10 9 8
17 21 25 20 17 15 11 13 13 23 28 31 23 22 19 21 26 30 34 37 33 30 28 28 26 23 23 20 19 17 18 18 19 19 12 10 8 6 9 7 6 7 4
16 16 18 21 15 10 7 5 4 11 17 19 19 28 30 31 33 38 37 36 37 35 30 26 24 21 20 21 21 20 20 22 20 17 12 5 5 6 7 6 5 6 2
15 15 15 14 14 6 1 1 5 10 13 16 24 14 31 27 28 33 39 40 39 38 35 29 25 23 22 22 21 19 18 19 16 11 8 8 7 6 5 5 7 5 2
13 14 14 12 10 3 6 7 12 19 22 29 30 33 37 35 38 38 40 40 37 36 36 34 30 25 23 24 22 21 19 16 15 13 12 8 7 5 4 5 6 4 4
13 13 10 10 5 2 11 14 18 24 31 32 38 34 36 38 39 42 40 40 37 30 29 31 30 27 23 23 23 23 20 17 16 16 14 13 11 7 6 4 3 2 3
11 9 7 6 2 2 12 19 23 27 30 35 33 44 45 36 39 38 39 36 34 30 26 26 25 24 21 20 22 24 23 22 19 19 19 16 13 9 5 4 5 6 3
9 7 3 1 2 8 11 21 23 25 29 34 36 36 43 40 34 36 38 37 35 32 25 21 20 20 17 15 18 20 22 18 17 14 11 9 6 8 7 8 6 6 4
4 4 5 5 9 13 17 19 28 26 29 30 33 32 34 33 30 30 32 34 34 28 26 22 18 16 15 14 14 14 16 17 13 10 10 8 7 8 8 8 8 8 5
11 13 14 14 15 18 23 22 27 28 26 25 28 28 28 27 25 24 27 30 29 30 25 24 20 18 18 17 15 17 16 13 13 11 9 8 7 8 8 7 7 7 6
17 20 20 20 19 19 21 21 23 22 21 20 22 23 22 23 21 19 21 21 25 28 27 24 22 20 20 20 18 15 13 12 12 10 9 8 8 7 6 7 5 5 5
23 23 22 21 20 20 22 22 21 18 17 17 19 18 19 20 22 24 22 21 24 27 25 24 22 19 16 17 15 12 11 10 9 9 9 9 8 6 5 5 4 3 2
21 23 23 21 19 18 18 17 22 18 15 15 19 21 20 17 19 26 26 27 28 28 29 25 21 17 15 12 11 11 11 10 9 9 9 8 7 5 4 3 4 4 2
16 16 17 18 16 15 15 16 12 10 8 11 18 20 18 20 21 22 22 23 24 27 24 22 18 14 12 11 11 11 10 9 9 8 9 7 7 5 3 2 2 4 7
10 12 13 11 11 13 13 13 14 10 9 10 12 14 15 21 18 18 20 21 20 23 17 18 17 15 14 13 12 10 10 9 7 7 8 8 7 6 4 3 5 7 9
7 6 7 7 8 9 9 10 12 14 15 13 10 12 11 16 17 18 20 20 16 15 13 15 14 14 13 13 12 11 10 10 10 10 9 8 6 4 4 5 7 8 9
8 7 7 7 8 9 11 10 9 10 13 15 14 11 12 15 16 16 18 18 15 11 11 12 13 14 14 13 13 12 11 11 11 11 8 5 3 2 2 3 5 7 8
10 9 9 9 9 10 11 11 11 11 11 11 14 16 19 20 18 19 19 17 14 13 10 10 12 13 14 14 14 13 13 12 10 8 5 3 2 2 3 5 7 8 10
16 15 13 13 14 15 16 17 16 16 17 19 20 19 22 25 26 24 22 20 17 14 11 11 14 15 15 14 14 13 11 10 9 7 5 4 3 4 6 7 9 10 12
19 19 20 20 18 19 19 17 17 17 17 18 19 20 19 22 21 20 22 18 16 12 10 11 13 13 12 12 12 11 10 9 8 7 5 3 4 5 7 8 9 11 12
24 23 23 22 20 18 18 18 18 18 18 17 17 19 23 23 23 21 19 19 17 14 11 12 13 14 14 13 11 10 9 8 7 5 4 4 5 6 7 8 10 12 13
25 24 22 21 19 19 18 17 17 17 16 17 18 19 21 24 24 22 20 18 16 14 13 13 14 14 13 12 12 11 10 9 6 5 4 5 5 6 7 9 11 13 17
25 23 23 22 21 19 19 19 19 19 18 18 18 17 16 18 20 20 18 17 17 16 16 15 15 14 12 12 13 11 10 8 7 5 4 4 4 5 8 11 14 17 18
25 24 23 21 21 20 20 20 20 20 20 18 17 16 16 17 17 19 19 19 20 20 19 18 16 14 14 14 12 9 8 7 5 3 2 2 4 7 11 13 16 18 20
Wind_Direction
301 300 302 303 297 280 278 269 259 224 218 232 249 226 229 229 227 223 215 213 202 193 189 179 155 144 134 133 128 122 114 124 118 95 127 143 119 120 106 92 60 57 104
304 301 304 308 305 291 289 268 251 250 255 254 247 241 218 216 211 207 197 189 178 167 160 149 145 140 127 119 118 109 120 117 119 125 147 158 125 109 93 88 60 93 108
308 310 310 312 310 296 299 285 253 248 246 244 233 225 208 195 183 167 152 148 153 147 147 142 140 139 127 122 121 121 122 122 139 150 146 139 138 99 100 90 64 102 100
307 314 314 317 317 324 320 295 270 231 237 228 222 207 183 178 167 152 153 146 139 141 139 134 134 129 126 128 125 133 132 125 130 134 123 123 127 98 85 68 57 55 95
306 315 317 316 312 315 324 304 186 185 184 185 166 171 159 157 156 156 148 141 141 132 127 125 122 125 134 138 140 128 129 125 123 121 112 101 72 64 61 29 28 20 54
310 319 320 318 310 313 304 75 122 133 146 146 152 114 145 139 143 145 141 131 128 126 124 124 123 124 126 127 121 118 119 124 120 114 106 114 110 109 77 53 30 16 3
320 322 324 321 317 301 112 123 119 119 124 117 99 102 100 105 116 117 124 120 118 122 129 131 128 125 127 121 116 115 110 112 113 119 125 125 112 92 94 70 47 16 4
316 317 321 318 331 298 116 125 125 122 119 120 122 116 109 112 123 121 119 120 119 122 132 134 132 130 126 123 118 109 100 98 104 111 111 103 102 100 86 85 78 105 115
317 312 318 321 315 118 123 123 122 123 118 115 114 121 117 116 120 123 123 121 124 125 128 131 130 128 131 130 123 112 106 101 97 96 95 90 81 83 103 115 76 114 123
332 319 325 323 161 120 115 121 117 114 110 112 111 116 124 126 130 130 132 132 124 129 129 130 135 133 134 129 123 128 121 124 123 116 99 92 92 75 73 70 71 71 82
21 43 73 108 112 117 115 112 115 110 110 111 113 118 124 128 136 139 139 138 137 132 132 132 128 128 128 129 133 129 132 143 136 130 124 112 95 80 72 66 64 78 85
87 84 86 99 108 113 115 109 111 112 109 108 110 108 119 129 131 137 147 144 142 143 134 131 127 125 122 122 125 119 129 135 135 134 122 105 93 81 76 66 61 79 73
96 86 86 89 92 96 99 102 98 105 105 108 108 111 115 122 124 128 130 128 139 137 135 126 126 118 115 110 110 117 123 129 132 126 115 106 95 81 76 69 64 116 87
96 95 93 92 93 101 105 101 95 92 98 110 111 115 121 124 135 136 135 133 135 128 129 138 138 132 126 122 118 123 125 128 133 128 123 112 107 97 87 78 69 139 142
95 98 97 97 96 99 104 119 122 120 132 131 133 139 137 138 152 156 154 149 150 150 148 143 142 138 138 132 130 127 125 127 123 122 123 122 120 112 82 79 58 51 49
100 103 108 113 115 117 119 110 100 112 131 150 156 158 161 162 159 161 155 155 155 159 159 157 157 157 157 157 149 141 137 138 133 129 125 125 128 133 124 82 28 10 9
121 132 136 141 145 148 148 142 130 112 109 130 151 158 159 162 157 154 151 149 154 169 171 170 170 177 178 174 170 161 157 153 144 141 149 152 157 145 133 66 16 6 358
199 179 172 162 152 148 156 160 160 151 142 135 141 154 160 163 163 157 152 154 165 179 177 182 186 190 187 184 179 176 169 163 164 164 163 162 152 121 69 38 15 1 348
202 187 175 164 159 163 170 171 170 165 164 154 152 158 166 175 170 170 174 190 183 171 186 191 195 191 187 185 185 180 174 172 173 173 171 159 132 89 50 356 345 340 327
216 207 199 190 184 184 189 192 191 190 185 179 181 179 174 174 178 185 195 200 201 203 201 194 187 187 188 188 184 180 175 175 172 170 174 174 193 269 309 319 322 320 315
216 212 209 206 208 206 204 202 203 200 197 198 200 196 192 192 192 197 201 204 207 203 201 195 189 187 186 184 181 178 178 175 177 180 185 203 227 275 294 308 310 309 313
221 218 214 215 214 214 215 215 214 212 211 210 209 203 199 208 211 212 209 211 211 212 209 200 189 188 188 185 182 184 181 179 181 188 197 221 248 275 298 311 317 319 318
215 215 217 219 220 220 219 217 214 215 219 221 220 216 208 215 220 220 219 216 211 208 204 197 194 187 184 182 181 181 180 181 180 189 208 250 276 290 302 310 316 316 321
219 216 219 222 222 223 224 224 226 226 224 222 221 219 217 217 219 220 218 214 207 201 198 198 194 190 185 182 177 174 176 176 186 209 242 281 295 290 300 315 323 322 322
222 222 224 227 231 236 242 245 246 247 243 237 232 228 226 220 216 216 216 209 201 197 192 190 188 185 184 179 173 171 175 185 197 219 259 290 313 320 325 322 323 322 321
220 223 226 228 232 237 238 238 240 242 242 240 237 233 229 222 218 215 208 200 194 189 185 183 182 181 178 173 172 179 185 190 200 212 259 308 337 336 326 322 323 319 318